When you browse on this site, cookies collect data to enhance your experience and personalize the content and advertising you see.
Visit our Privacy Policy to learn more. By continuing to use the site, you agree to this use of cookies and data.
  • In Schweiz
  • Länderverzeichnis
  • Für 7 Tage
  • Wassertemperatur
  • Satellitenkarten
  • Wetterkarte
  • Widgets
  • user-avatar
    Anmelden

    Stündliche Wetter Sidi Bu-l-Abbas

    Heute, 23 März, Samstag

    Zeit Temperatur Niederschläge Wind Luftdruck Luftfeuchtigkeit
    00:00 +8°C° 0 mm 1 m/S 724 mmHg 96%
    01:00 +7°C° 0 mm 0 m/S 724 mmHg 95%
    02:00 +6°C° 0 mm 0 m/S 724 mmHg 95%
    03:00 +6°C° 0 mm 0 m/S 723 mmHg 94%
    04:00 +6°C° 0 mm 0 m/S 723 mmHg 95%
    05:00 +5°C° 0 mm 0 m/S 723 mmHg 95%
    06:00 +5°C° 0 mm 0 m/S 723 mmHg 95%
    07:00 +7°C° 0 mm 0 m/S 724 mmHg 87%
    08:00 +11°C° 0 mm 1 m/S 724 mmHg 79%
    09:00 +13°C° 0 mm 1 m/S 725 mmHg 72%
    10:00 +14°C° 0 mm 2 m/S 725 mmHg 63%
    11:00 +16°C° 0 mm 2 m/S 725 mmHg 55%
    12:00 +17°C° 0 mm 3 m/S 724 mmHg 46%
    13:00 +18°C° 0 mm 4 m/S 724 mmHg 44%
    14:00 +18°C° 0 mm 4 m/S 723 mmHg 41%
    15:00 +19°C° 0 mm 5 m/S 723 mmHg 39%
    16:00 +17°C° 0 mm 5 m/S 722 mmHg 45%
    17:00 +16°C° 0 mm 5 m/S 722 mmHg 51%
    18:00 +14°C° 0 mm 5 m/S 721 mmHg 57%
    19:00 +13°C° 0 mm 5 m/S 722 mmHg 65%
    20:00 +12°C° 0 mm 4 m/S 722 mmHg 73%
    21:00 +11°C° 0 mm 3 m/S 722 mmHg 81%
    22:00 +10°C° 0 mm 3 m/S 722 mmHg 80%
    23:00 +10°C° 0 mm 2 m/S 722 mmHg 79%

    Morgen, 24 März, Sonntag

    Zeit Temperatur Niederschläge Wind Luftdruck Luftfeuchtigkeit
    00:00 +10°C° 0 mm 2 m/S 722 mmHg 78%
    01:00 +12°C° 0 mm 2 m/S 722 mmHg 70%
    02:00 +12°C° 0 mm 2 m/S 721 mmHg 63%
    03:00 +13°C° 0 mm 2 m/S 721 mmHg 55%
    04:00 +13°C° 0 mm 2 m/S 721 mmHg 53%
    05:00 +13°C° 0 mm 2 m/S 721 mmHg 51%
    06:00 +13°C° 0 mm 3 m/S 721 mmHg 49%
    07:00 +13°C° 0.1 mm 3 m/S 722 mmHg 50%
    08:00 +14°C° 0.1 mm 4 m/S 722 mmHg 51%
    09:00 +15°C° 0.1 mm 5 m/S 723 mmHg 51%
    10:00 +14°C° 1.1 mm 5 m/S 723 mmHg 55%
    11:00 +14°C° 1.1 mm 5 m/S 723 mmHg 59%
    12:00 +14°C° 1.1 mm 5 m/S 722 mmHg 64%
    13:00 +15°C° 0.4 mm 5 m/S 722 mmHg 59%
    14:00 +16°C° 0.4 mm 6 m/S 722 mmHg 54%
    15:00 +17°C° 0.4 mm 6 m/S 721 mmHg 49%
    16:00 +17°C° 0 mm 5 m/S 721 mmHg 51%
    17:00 +16°C° 0 mm 5 m/S 721 mmHg 54%
    18:00 +15°C° 0 mm 4 m/S 721 mmHg 56%
    19:00 +15°C° 0.1 mm 4 m/S 721 mmHg 58%
    20:00 +15°C° 0.1 mm 5 m/S 721 mmHg 59%
    21:00 +14°C° 0.1 mm 5 m/S 722 mmHg 61%
    22:00 +14°C° 0 mm 5 m/S 721 mmHg 61%
    23:00 +14°C° 0 mm 5 m/S 721 mmHg 61%

    übermorgen, 25 März, Montag

    Zeit Temperatur Niederschläge Wind Luftdruck Luftfeuchtigkeit
    00:00 +14°C° 0 mm 5 m/S 721 mmHg 61%
    01:00 +14°C° 0 mm 5 m/S 721 mmHg 59%
    02:00 +13°C° 0 mm 5 m/S 720 mmHg 57%
    03:00 +13°C° 0 mm 5 m/S 720 mmHg 55%
    04:00 +13°C° 0 mm 5 m/S 720 mmHg 54%
    05:00 +13°C° 0 mm 5 m/S 720 mmHg 53%
    06:00 +13°C° 0 mm 5 m/S 720 mmHg 51%
    07:00 +14°C° 0 mm 5 m/S 721 mmHg 47%
    08:00 +16°C° 0 mm 6 m/S 721 mmHg 42%
    09:00 +19°C° 0 mm 6 m/S 721 mmHg 37%
    10:00 +20°C° 0 mm 6 m/S 721 mmHg 35%
    11:00 +22°C° 0 mm 6 m/S 721 mmHg 32%
    12:00 +23°C° 0 mm 6 m/S 721 mmHg 29%
    13:00 +24°C° 0 mm 6 m/S 720 mmHg 28%
    14:00 +25°C° 0 mm 5 m/S 720 mmHg 27%
    15:00 +26°C° 0 mm 5 m/S 719 mmHg 26%
    16:00 +25°C° 0 mm 5 m/S 719 mmHg 29%
    17:00 +23°C° 0 mm 5 m/S 719 mmHg 33%
    18:00 +22°C° 0 mm 5 m/S 718 mmHg 36%
    19:00 +20°C° 0 mm 5 m/S 719 mmHg 38%
    20:00 +19°C° 0 mm 5 m/S 719 mmHg 40%
    21:00 +17°C° 0 mm 5 m/S 719 mmHg 42%
    22:00 +17°C° 0 mm 5 m/S 719 mmHg 40%
    23:00 +17°C° 0 mm 5 m/S 719 mmHg 39%

    26 März, Dienstag

    Zeit Temperatur Niederschläge Wind Luftdruck Luftfeuchtigkeit
    00:00 +19°C° 0 mm 5 m/S 719 mmHg 38%
    01:00 +18°C° 0 mm 4 m/S 718 mmHg 38%
    02:00 +17°C° 0 mm 4 m/S 718 mmHg 39%
    03:00 +15°C° 0 mm 4 m/S 717 mmHg 40%
    04:00 +16°C° 0 mm 3 m/S 717 mmHg 41%
    05:00 +16°C° 0 mm 2 m/S 717 mmHg 42%
    06:00 +16°C° 0 mm 2 m/S 717 mmHg 43%
    07:00 +17°C° 0.3 mm 3 m/S 718 mmHg 45%
    08:00 +18°C° 0.3 mm 4 m/S 718 mmHg 46%
    09:00 +19°C° 0.3 mm 5 m/S 718 mmHg 48%
    10:00 +21°C° 0.3 mm 5 m/S 718 mmHg 43%
    11:00 +23°C° 0.3 mm 6 m/S 718 mmHg 38%
    12:00 +26°C° 0.3 mm 7 m/S 718 mmHg 33%
    13:00 +27°C° 0 mm 7 m/S 718 mmHg 30%
    14:00 +28°C° 0 mm 7 m/S 717 mmHg 26%
    15:00 +29°C° 0 mm 7 m/S 717 mmHg 23%
    16:00 +27°C° 0 mm 6 m/S 717 mmHg 28%
    17:00 +24°C° 0 mm 6 m/S 717 mmHg 33%
    18:00 +22°C° 0 mm 6 m/S 716 mmHg 38%
    19:00 +21°C° 0 mm 6 m/S 717 mmHg 42%
    20:00 +19°C° 0 mm 6 m/S 717 mmHg 45%
    21:00 +17°C° 0 mm 6 m/S 718 mmHg 49%
    22:00 +16°C° 0 mm 5 m/S 718 mmHg 50%
    23:00 +17°C° 0 mm 4 m/S 718 mmHg 52%

    27 März, Mittwoch

    Zeit Temperatur Niederschläge Wind Luftdruck Luftfeuchtigkeit
    00:00 +17°C° 0 mm 4 m/S 717 mmHg 53%
    01:00 +15°C° 0.8 mm 4 m/S 717 mmHg 60%
    02:00 +15°C° 0.8 mm 4 m/S 717 mmHg 67%
    03:00 +14°C° 0.8 mm 4 m/S 717 mmHg 75%
    04:00 +14°C° 0.4 mm 4 m/S 717 mmHg 77%
    05:00 +13°C° 0.4 mm 4 m/S 717 mmHg 79%
    06:00 +13°C° 0.4 mm 4 m/S 717 mmHg 81%
    07:00 +15°C° 0.3 mm 5 m/S 717 mmHg 73%
    08:00 +16°C° 0.3 mm 6 m/S 718 mmHg 65%
    09:00 +18°C° 0.3 mm 7 m/S 718 mmHg 57%
    10:00 +21°C° 0 mm 7 m/S 718 mmHg 51%
    11:00 +22°C° 0 mm 7 m/S 718 mmHg 45%
    12:00 +24°C° 0 mm 7 m/S 718 mmHg 39%
    13:00 +23°C° 0.1 mm 6 m/S 717 mmHg 41%
    14:00 +23°C° 0.1 mm 5 m/S 717 mmHg 43%
    15:00 +22°C° 0.1 mm 4 m/S 716 mmHg 46%
    16:00 +20°C° 0.9 mm 5 m/S 716 mmHg 59%
    17:00 +17°C° 0.9 mm 5 m/S 716 mmHg 73%
    18:00 +14°C° 0.9 mm 5 m/S 716 mmHg 86%
    19:00 +14°C° 1.4 mm 4 m/S 716 mmHg 88%
    20:00 +14°C° 1.4 mm 4 m/S 717 mmHg 91%
    21:00 +13°C° 1.4 mm 4 m/S 718 mmHg 93%
    22:00 +13°C° 0.5 mm 3 m/S 718 mmHg 93%
    23:00 +13°C° 0.5 mm 3 m/S 718 mmHg 93%

    28 März, Donnerstag

    Zeit Temperatur Niederschläge Wind Luftdruck Luftfeuchtigkeit
    00:00 +13°C° 0.5 mm 3 m/S 718 mmHg 93%
    01:00 +13°C° 0.1 mm 3 m/S 718 mmHg 94%
    02:00 +13°C° 0.1 mm 3 m/S 718 mmHg 94%
    03:00 +13°C° 0.1 mm 3 m/S 718 mmHg 94%
    04:00 +12°C° 0 mm 3 m/S 718 mmHg 94%
    05:00 +13°C° 0 mm 2 m/S 719 mmHg 94%
    06:00 +13°C° 0 mm 2 m/S 719 mmHg 94%
    07:00 +13°C° 0 mm 3 m/S 719 mmHg 90%
    08:00 +14°C° 0 mm 3 m/S 720 mmHg 86%
    09:00 +14°C° 0 mm 3 m/S 720 mmHg 82%
    10:00 +16°C° 0 mm 3 m/S 721 mmHg 77%
    11:00 +17°C° 0 mm 4 m/S 721 mmHg 73%
    12:00 +18°C° 0 mm 4 m/S 721 mmHg 68%
    13:00 +18°C° 0.1 mm 4 m/S 721 mmHg 69%
    14:00 +17°C° 0.1 mm 5 m/S 721 mmHg 71%
    15:00 +17°C° 0.1 mm 5 m/S 720 mmHg 72%
    16:00 +17°C° 0.1 mm 4 m/S 721 mmHg 77%
    17:00 +15°C° 0.1 mm 4 m/S 721 mmHg 81%
    18:00 +14°C° 0.1 mm 3 m/S 721 mmHg 86%
    19:00 +14°C° 0.1 mm 3 m/S 722 mmHg 87%
    20:00 +14°C° 0.1 mm 2 m/S 722 mmHg 89%
    21:00 +14°C° 0.1 mm 2 m/S 723 mmHg 90%
    22:00 +14°C° 0 mm 2 m/S 723 mmHg 91%
    23:00 +14°C° 0 mm 2 m/S 722 mmHg 91%
    Mehr zeigen